Location: Unspecified
(40.7945°N, 0.0000°E)
Time: 02:50:40
(UTC+00:00)

Altair - Pass Details

Date: 25 January 2021
Orbit: 1501 x 1682 km, 47.2° (Epoch: 01 March)

Event Time Altitude Azimuth Distance (km) Brightness Sun altitude
Rises 02:29:48 0° 188° (S) 4,794 - -53.4°
Reaches altitude 10° 02:33:39 10° 176° (S) 3,840 - -52.8°
Maximum altitude 02:40:59 24° 127° (SE) 2,919 - -51.5°
Exits shadow 02:41:53 24° 119° (ESE) 2,941 9.1 -51.3°
Drops below altitude 10° 02:48:27 10° 78° (ENE) 3,934 10.1 -50.2°
Sets 02:52:24 0° 66° (ENE) 4,935 10.8 -49.5°
